Estación meteorológica de Susqueda - Presa de (La Selva, Susqueda)

Consulta los datos en tiempo real de la estación meteorológica de Susqueda - Presa de





Hora UTC 13:15
Temperatura 32.4 ºC
Humedad 51.0 %
Presión 1015.3 hPa
Pluja 0.0 mm
Velocidad viento 0.0 km/h
Dirección viento ESE

Webcam

Datos diarios 2026-08-31



Hora UTC (invierno +1h; verano +2h)
Temperatura (ºC) Humedad (%) Presión (hPa) Velocidad viento (km/h) Precipitación (mm)
Hora UTC Aire Humedad Presión Vel. Dir. Vel. Max Dir. Intent. máx 5 min.
00:05 21.8 61.0 1015.4 0.0 W 0.0 0.0
00:10 21.8 62.0 1015.5 0.0 W 6.4 0.0
00:15 21.7 62.0 1015.4 0.0 W 1.6 0.0
00:20 21.6 62.0 1015.4 1.6 W 11.3 0.0
00:25 21.6 62.0 1015.5 0.0 W 11.3 0.0
00:30 21.4 65.0 1015.4 0.0 W 9.7 0.0
00:35 21.2 64.0 1015.4 0.0 W 9.7 0.0
00:40 21.2 63.0 1015.4 0.0 WNW 6.4 0.0
00:45 21.4 62.0 1015.4 0.0 W 6.4 0.0
00:50 21.2 64.0 1015.3 0.0 W 0.0 0.0
00:55 21.0 65.0 1015.4 0.0 W 0.0 0.0
01:00 20.8 66.0 1015.4 0.0 W 0.0 0.0
01:05 20.8 64.0 1015.4 0.0 W 0.0 0.0
01:10 20.8 66.0 1015.4 0.0 W 0.0 0.0
01:15 20.7 65.0 1015.4 0.0 W 3.2 0.0
01:20 20.6 66.0 1015.4 0.0 W 8.0 0.0
01:25 20.4 67.0 1015.4 0.0 W 8.0 0.0
01:30 20.4 66.0 1015.4 0.0 W 8.0 0.0
01:35 20.3 67.0 1015.4 0.0 W 8.0 0.0
01:40 20.3 67.0 1015.5 0.0 W 6.4 0.0
01:45 20.3 67.0 1015.5 0.0 W 9.7 0.0
01:50 20.1 68.0 1015.6 3.2 W 9.7 0.0
01:55 20.2 66.0 1015.6 12.9 W 12.9 0.0
02:00 20.1 67.0 1015.6 1.6 WSW 12.9 0.0
02:05 20.0 68.0 1015.7 6.4 WNW 11.3 0.0
02:10 20.0 68.0 1015.7 9.7 W 12.9 0.0
02:15 20.1 66.0 1015.7 0.0 W 12.9 0.0
02:20 20.1 67.0 1015.7 0.0 W 11.3 0.0
02:25 19.9 68.0 1015.7 0.0 W 11.3 0.0
02:30 19.8 68.0 1015.8 0.0 W 1.6 0.0
02:35 19.7 68.0 1015.8 0.0 W 9.7 0.0
02:40 19.7 68.0 1015.8 0.0 W 9.7 0.0
02:45 19.7 67.0 1015.8 1.6 W 8.0 0.0
02:50 19.7 68.0 1015.9 0.0 WNW 8.0 0.0
02:55 19.7 69.0 1015.9 0.0 W 1.6 0.0
03:00 19.7 69.0 1015.9 0.0 W 0.0 0.0
03:05 19.6 69.0 1015.9 0.0 W 0.0 0.0
03:10 19.5 69.0 1016.0 0.0 W 0.0 0.0
03:15 19.5 69.0 1016.0 0.0 W 0.0 0.0
03:20 19.4 70.0 1015.9 0.0 W 0.0 0.0
03:25 19.3 70.0 1015.9 0.0 W 1.6 0.0
03:30 19.2 70.0 1015.9 0.0 WNW 1.6 0.0
03:35 19.1 71.0 1015.8 0.0 WSW 3.2 0.0
03:40 19.1 75.0 1015.9 4.8 WSW 6.4 0.0
03:45 19.1 72.0 1015.9 0.0 W 6.4 0.0
03:50 18.9 72.0 1016.0 0.0 W 9.7 0.0
03:55 18.9 73.0 1016.0 0.0 W 0.0 0.0
04:00 18.8 73.0 1015.9 0.0 WNW 0.0 0.0
04:05 18.9 72.0 1015.9 0.0 W 0.0 0.0
04:10 18.9 73.0 1016.0 0.0 W 0.0 0.0
04:15 18.8 73.0 1016.0 0.0 W 0.0 0.0
04:20 18.7 74.0 1016.0 0.0 WNW 0.0 0.0
04:25 18.6 75.0 1015.9 0.0 W 0.0 0.0
04:30 18.6 75.0 1015.9 0.0 W 8.0 0.0
04:35 18.5 76.0 1015.9 6.4 W 9.7 0.0
04:40 18.4 75.0 1016.0 0.0 W 8.0 0.0
04:45 18.4 74.0 1016.0 3.2 W 9.7 0.0
04:50 18.3 73.0 1016.0 1.6 W 9.7 0.0
04:55 18.3 74.0 1016.1 6.4 W 8.0 0.0
05:00 18.3 75.0 1016.1 4.8 W 9.7 0.0
05:05 18.2 75.0 1016.1 0.0 W 9.7 0.0
05:10 18.1 75.0 1016.1 0.0 W 1.6 0.0
05:15 18.1 75.0 1016.1 0.0 W 9.7 0.0
05:20 18.1 75.0 1016.2 0.0 W 8.0 0.0
05:25 18.1 75.0 1016.3 6.4 W 8.0 0.0
05:30 17.9 76.0 1016.3 6.4 WNW 9.7 0.0
05:35 17.9 76.0 1016.4 6.4 W 11.3 0.0
05:40 17.9 76.0 1016.4 6.4 W 11.3 0.0
05:45 17.9 77.0 1016.5 6.4 W 9.7 0.0
05:50 17.9 76.0 1016.5 0.0 W 9.7 0.0
05:55 18.1 76.0 1016.5 6.4 W 11.3 0.0
06:00 18.1 76.0 1016.5 9.7 W 11.3 0.0
06:05 18.2 75.0 1016.6 11.3 WNW 11.3 0.0
06:10 18.3 76.0 1016.5 0.0 W 11.3 0.0
06:15 18.3 77.0 1016.5 0.0 W 11.3 0.0
06:20 18.2 76.0 1016.5 6.4 WNW 11.3 0.0
06:25 18.3 75.0 1016.6 9.7 W 11.3 0.0
06:30 18.4 76.0 1016.6 9.7 W 11.3 0.0
06:35 18.4 75.0 1016.7 8.0 WSW 11.3 0.0
06:40 18.4 75.0 1016.7 9.7 W 11.3 0.0
06:45 18.5 75.0 1016.7 4.8 W 11.3 0.0
06:50 18.6 74.0 1016.8 6.4 W 11.3 0.0
06:55 18.7 74.0 1016.8 4.8 WSW 11.3 0.0
07:00 18.9 74.0 1016.8 9.7 W 11.3 0.0
07:05 19.1 74.0 1016.8 4.8 W 11.3 0.0
07:10 19.1 74.0 1016.8 1.6 W 11.3 0.0
07:15 19.2 74.0 1016.9 0.0 W 9.7 0.0
07:20 19.3 75.0 1016.9 0.0 WSW 9.7 0.0
07:25 19.3 74.0 1016.9 0.0 W 9.7 0.0
07:30 19.4 74.0 1016.9 0.0 WSW 9.7 0.0
07:35 19.4 74.0 1016.9 0.0 WSW 0.0 0.0
07:40 19.6 74.0 1016.9 0.0 WSW 0.0 0.0
07:45 19.8 73.0 1016.9 0.0 WSW 0.0 0.0
07:50 19.9 73.0 1016.9 0.0 WSW 0.0 0.0
07:55 20.0 73.0 1016.9 0.0 WSW 0.0 0.0
08:00 20.2 72.0 1017.0 0.0 WSW 0.0 0.0
08:05 20.3 72.0 1017.0 0.0 WSW 0.0 0.0
08:10 20.4 72.0 1017.1 0.0 WSW 0.0 0.0
08:15 20.7 71.0 1017.1 0.0 WSW 0.0 0.0
08:20 20.8 71.0 1017.1 0.0 WSW 0.0 0.0
08:25 21.3 70.0 1017.1 0.0 WSW 0.0 0.0
08:30 21.8 70.0 1017.1 0.0 ESE 0.0 0.0
08:35 22.3 67.0 1017.0 0.0 ESE 0.0 0.0
08:40 22.3 69.0 1017.1 0.0 ESE 0.0 0.0
08:45 22.6 67.0 1017.1 0.0 ESE 0.0 0.0
08:50 23.2 68.0 1017.1 0.0 ESE 0.0 0.0
08:55 23.9 66.0 1017.1 0.0 E 0.0 0.0
09:00 24.5 64.0 1017.1 0.0 ESE 0.0 0.0
09:05 25.2 62.0 1017.0 0.0 E 0.0 0.0
09:10 25.8 61.0 1017.1 0.0 E 1.6 0.0
09:15 26.2 59.0 1017.0 0.0 E 0.0 0.0
09:20 26.8 57.0 1017.0 0.0 NE 1.6 0.0
09:25 27.3 56.0 1017.0 0.0 W 0.0 0.0
09:30 27.9 55.0 1016.9 0.0 NNW 1.6 0.0
09:35 28.6 53.0 1016.9 0.0 ESE 6.4 0.0
09:40 28.8 52.0 1016.8 0.0 E 9.7 0.0
09:45 29.2 51.0 1016.8 0.0 E 11.3 0.0
09:50 29.4 51.0 1016.8 0.0 ENE 11.3 0.0
09:55 29.8 49.0 1016.7 0.0 ESE 9.7 0.0
10:00 30.5 48.0 1016.7 0.0 E 9.7 0.0
10:05 30.9 47.0 1016.7 0.0 ESE 9.7 0.0
10:10 30.8 46.0 1016.7 0.0 ESE 11.3 0.0
10:15 30.1 49.0 1016.6 0.0 E 11.3 0.0
10:20 30.4 48.0 1016.5 0.0 E 11.3 0.0
10:25 30.8 47.0 1016.5 0.0 E 9.7 0.0
10:30 31.3 46.0 1016.5 0.0 E 3.2 0.0
10:35 31.2 46.0 1016.6 1.6 E 9.7 0.0
10:40 31.1 47.0 1016.6 0.0 E 9.7 0.0
10:45 31.2 46.0 1016.5 0.0 E 6.4 0.0
10:50 31.5 46.0 1016.6 0.0 SE 3.2 0.0
10:55 31.8 44.0 1016.5 0.0 ENE 9.7 0.0
11:00 31.8 45.0 1016.4 0.0 E 9.7 0.0
11:05 32.4 45.0 1016.3 0.0 E 3.2 0.0
11:10 33.1 43.0 1016.3 0.0 E 0.0 0.0
11:15 33.6 43.0 1016.2 0.0 E 0.0 0.0
11:20 33.6 42.0 1016.2 0.0 E 1.6 0.0
11:25 33.4 43.0 1016.2 0.0 E 1.6 0.0
11:30 33.1 43.0 1016.1 0.0 ESE 6.4 0.0
11:35 32.3 45.0 1016.1 0.0 E 11.3 0.0
11:40 32.3 46.0 1016.0 0.0 E 9.7 0.0
11:45 32.8 45.0 1016.0 0.0 E 9.7 0.0
11:50 33.2 44.0 1016.0 0.0 E 6.4 0.0
11:55 33.1 44.0 1015.8 8.0 ENE 12.9 0.0
12:00 32.3 45.0 1015.7 0.0 NNW 12.9 0.0
12:05 32.2 47.0 1015.8 0.0 NE 12.9 0.0
12:10 31.0 49.0 1015.9 0.0 ESE 12.9 0.0
12:15 31.3 50.0 1015.6 0.0 E 12.9 0.0
12:20 32.2 48.0 1015.6 0.0 SE 8.0 0.0
12:25 32.7 47.0 1015.5 0.0 NE 11.3 0.0
12:30 32.7 47.0 1015.6 0.0 ESE 11.3 0.0
12:35 33.0 47.0 1015.4 4.8 E 9.7 0.0
12:40 32.9 48.0 1015.5 0.0 ENE 9.7 0.0
12:45 32.8 48.0 1015.4 4.8 E 9.7 0.0
12:50 32.7 49.0 1015.3 0.0 E 11.3 0.0
12:55 32.7 50.0 1015.4 0.0 E 12.9 0.0
13:00 32.6 50.0 1015.4 0.0 E 12.9 0.0
13:05 31.6 53.0 1015.3 0.0 ENE 12.9 0.0
13:10 32.1 52.0 1015.4 0.0 ESE 12.9 0.0
13:15 32.4 51.0 1015.3 0.0 ESE 3.2 0.0
Máxima 33.6 77.0 1017.1 12.9 W 12.9 0.0
Mínima 17.9 42.0 1015.3
Total 0.0